| time (UTC) | temp C | wind direction | speed KPH | gust KPH | rain 1hr cm | rain 24hr cm | rain mn cm | humidity % | barometer mb |
| 20260504081515 | 15 | 156 | 3.2 | 8.0 | 0.00 | 0.00 | 0.00 | 88 | 1014.3 |
| 20260504044538 | 18 | 149 | 6.4 | 14.5 | 0.00 | 0.00 | 0.00 | 77 | 1016.7 |
| 20260504043038 | 18 | 155 | 8.0 | 16.1 | 0.00 | 0.00 | 0.00 | 77 | 1016.9 |
| 20260504041536 | 18 | 360 | 8.0 | 14.5 | 0.00 | 0.00 | 0.00 | 76 | 1017.0 |
| 20260504040042 | 18 | 152 | 8.0 | 14.5 | 0.00 | 0.00 | 0.00 | 76 | 1017.0 |
| 20260504034541 | 18 | 150 | 6.4 | 14.5 | 0.00 | 0.00 | 0.00 | 75 | 1017.0 |
| 20260504033038 | 18 | 148 | 8.0 | 12.9 | 0.00 | 0.00 | 0.00 | 75 | 1017.0 |
| 20260504031542 | 18 | 146 | 6.4 | 16.1 | 0.00 | 0.00 | 0.00 | 73 | 1016.8 |
| 20260504030030 | 19 | 360 | 11.3 | 17.7 | 0.00 | 0.00 | 0.00 | 72 | 1016.8 |
| 20260504024526 | 20 | 150 | 8.0 | 16.1 | 0.00 | 0.00 | 0.00 | 70 | 1016.9 |
| 20260504023022 | 20 | 146 | 11.3 | 19.3 | 0.00 | 0.00 | 0.00 | 68 | 1016.7 |
| 20260504021518 | 20 | 136 | 11.3 | 19.3 | 0.00 | 0.00 | 0.00 | 67 | 1016.4 |
| 20260504020012 | 20 | 360 | 8.0 | 20.9 | 0.00 | 0.00 | 0.00 | 64 | 1016.4 |
| 20260504014507 | 21 | 158 | 11.3 | 17.7 | 0.00 | 0.00 | 0.00 | 63 | 1015.9 |
| 20260504013006 | 21 | 144 | 8.0 | 16.1 | 0.00 | 0.00 | 0.00 | 61 | 1015.8 |
| 20260504011559 | 21 | 148 | 9.7 | 20.9 | 0.00 | 0.00 | 0.00 | 58 | 1015.7 |
| 20260504004550 | 22 | 144 | 6.4 | 12.9 | 0.00 | 0.00 | 0.00 | 54 | 1015.6 |
| 20260504003052 | 23 | 143 | 6.4 | 17.7 | 0.00 | 0.00 | 0.00 | 51 | 1015.8 |
| 20260504001545 | 24 | 134 | 9.7 | 16.1 | 0.00 | 0.00 | 0.00 | 48 | 1015.8 |
| 20260504000057 | 24 | 142 | 11.3 | 16.1 | 0.00 | 0.00 | 0.00 | 47 | 1016.0 |
| 20260503234535 | 24 | 131 | 9.7 | 17.7 | 0.00 | 0.00 | 0.00 | 47 | 1016.1 |
| 20260503233028 | 25 | 126 | 11.3 | 17.7 | 0.00 | 0.00 | 0.00 | 45 | 1016.0 |
| 20260503231523 | 25 | 162 | 8.0 | 19.3 | 0.00 | 0.00 | 0.00 | 42 | 1016.1 |
| 20260503230018 | 25 | 144 | 8.0 | 19.3 | 0.00 | 0.00 | 0.00 | 45 | 1016.1 |
| 20260503224514 | 25 | 138 | 12.9 | 16.1 | 0.00 | 0.00 | 0.00 | 45 | 1016.3 |
| 20260503223010 | 25 | 138 | 9.7 | 20.9 | 0.00 | 0.00 | 0.00 | 44 | 1016.6 |
| 20260503221504 | 25 | 129 | 9.7 | 20.9 | 0.00 | 0.00 | 0.00 | 41 | 1017.0 |
| 20260503220101 | 25 | 148 | 14.5 | 17.7 | 0.00 | 0.00 | 0.00 | 40 | 1017.2 |
| 20260503214555 | 25 | 141 | 9.7 | 20.9 | 0.00 | 0.00 | 0.00 | 43 | 1017.0 |
| 20260503213052 | 25 | 157 | 9.7 | 20.9 | 0.00 | 0.00 | 0.00 | 41 | 1017.5 |
| 20260503211549 | 25 | 150 | 11.3 | 24.1 | 0.00 | 0.00 | 0.00 | 41 | 1017.9 |
| 20260503210042 | 25 | 360 | 12.9 | 20.9 | 0.00 | 0.00 | 0.00 | 42 | 1018.1 |
| 20260503204537 | 25 | 161 | 11.3 | 19.3 | 0.00 | 0.00 | 0.00 | 41 | 1018.3 |
| 20260503203043 | 25 | 125 | 14.5 | 24.1 | 0.00 | 0.00 | 0.00 | 47 | 1018.7 |
| 20260503201533 | 25 | 168 | 8.0 | 14.5 | 0.00 | 0.00 | 0.00 | 44 | 1018.8 |
| 20260503200023 | 25 | 167 | 6.4 | 19.3 | 0.00 | 0.00 | 0.00 | 49 | 1019.2 |
| 20260503194519 | 25 | 132 | 9.7 | 30.6 | 0.00 | 0.00 | 0.00 | 46 | 1019.3 |
| 20260503193018 | 24 | 160 | 9.7 | 20.9 | 0.00 | 0.00 | 0.00 | 46 | 1019.5 |
| 20260503191510 | 25 | 115 | 16.1 | 22.5 | 0.00 | 0.00 | 0.00 | 51 | 1019.8 |
| 20260503190008 | 24 | 143 | 3.2 | 22.5 | 0.00 | 0.00 | 0.00 | 46 | 1020.0 |
| 20260503184501 | 24 | 150 | 12.9 | 20.9 | 0.00 | 0.00 | 0.00 | 48 | 1020.3 |
| 20260503183058 | 24 | 136 | 11.3 | 17.7 | 0.00 | 0.00 | 0.00 | 49 | 1020.5 |
| 20260503181602 | 24 | 137 | 11.3 | 17.7 | 0.00 | 0.00 | 0.00 | 51 | 1020.8 |
| 20260503180048 | 23 | 227 | 9.7 | 22.5 | 0.00 | 0.00 | 0.00 | 47 | 1021.1 |
| 20260503174544 | 23 | 142 | 6.4 | 17.7 | 0.00 | 0.00 | 0.00 | 54 | 1021.4 |
| 20260503173052 | 23 | 181 | 6.4 | 19.3 | 0.00 | 0.00 | 0.00 | 49 | 1021.6 |
| 20260503171538 | 23 | 180 | 8.0 | 14.5 | 0.00 | 0.00 | 0.00 | 54 | 1021.7 |